Tracking 19638 objects as of 19-May-2019
HD Live streaming from Space Station
objects crossing your sky now

OPS 7044 (VELA 12)

Track OPS 7044 (VELA 12) now!
OPS 7044 (VELA 12) is classified as:


NORAD ID: 4366
Int'l Code: 1970-027A
Perigee: 13,289.8 km
Apogee: 209,724.7 km
Inclination: 37.1 °
Period: 6,712.9 minutes
Semi major axis: 117878 km
RCS: 0.31 m2 (medium)
Launch date: April 8, 1970
Source: United States (US)
Launch site: AIR FORCE EASTERN TEST RANGE (AFETR)
aabbcc
Your satellite tracking list
Your tracking list is empty




NASA's NSSDC Master Catalog

Two Line Element Set (TLE):
1  4366U 70027A   19049.40742954  .00000869  00000-0  00000+0 0  9995
2  4366  37.1138 151.1894 8332112  87.7490 359.5115  0.21451240 31976
Source of the keplerian elements: AFSPC